FW4397 Weather Reports


Display with metric or nautical units.
time (UTC)temp
F
wind
direction
speed
MPH
gust
MPH
rain 1hr
in
rain 24hr
in
rain mn
in
humidity
%
barometer
mb
20260507124606 68 178 0.0 4.0 0.02 0.03 0.03 91 1017.1
20260507124033 68 177 1.0 4.0 0.01 0.02 0.02 91 1017.1
20260507123534 68 0 1.0 5.0 0.01 0.02 0.02 91 1017.1
20260507123056 68 0 1.0 5.0 0.01 0.02 0.02 91 1017.1
20260507122533 68 0 0.0 3.0 0.00 0.01 0.01 91 1017.1
20260507122030 68 0 0.0 3.0 0.01 0.01 0.01 91 1017.1
20260507121547 68 124 0.0 3.0 0.01 0.01 0.01 91 1017.2
20260507121030 68 0 0.0 3.0 0.01 0.01 0.01 91 1017.3
20260507120530 68 0 0.0 3.0 0.01 0.01 0.01 91 1017.2
20260507120046 69 206 1.0 3.0 0.01 0.01 0.01 91 1017.3
20260507115533 69 0 1.0 3.0 0.01 0.01 0.01 91 1017.3
20260507115030 68 0 0.0 3.0 0.01 0.01 0.01 91 1017.3
20260507114547 69 229 1.0 3.0 0.01 0.01 0.01 91 1017.3
20260507114031 69 0 1.0 3.0 0.01 0.01 0.01 91 1017.4
20260507113530 69 0 0.0 3.0 0.01 0.01 0.01 91 1017.5
20260507113043 69 230 1.0 3.0 0.01 0.01 0.01 91 1017.6
20260507112530 69 230 1.0 3.0 0.01 0.01 0.01 91 1017.7
20260507112030 69 0 0.0 5.0 0.00 0.00 0.00 91 1017.5
20260507111545 69 144 1.0 5.0 0.00 0.00 0.00 90 1017.5
20260507111030 69 0 0.0 5.0 0.00 0.00 0.00 90 1017.5
20260507110530 69 186 1.0 6.0 0.00 0.00 0.00 90 1017.6
20260507110046 69 275 0.0 6.0 0.00 0.00 0.00 90 1017.8
20260507105531 69 244 1.0 7.0 0.00 0.00 0.00 90 1017.8
20260507105031 69 327 1.0 7.0 0.00 0.00 0.00 90 1017.9
20260507104544 69 0 0.0 0.0 0.00 0.00 0.00 90 1017.9
20260507104031 69 0 0.0 0.0 0.00 0.00 0.00 90 1017.9
20260507103530 69 0 0.0 0.0 0.00 0.00 0.00 90 1018.0
20260507103043 69 0 0.0 0.0 0.00 0.00 0.00 90 1018.0
20260507102530 69 0 0.0 0.0 0.00 0.00 0.00 90 1018.0
20260507102031 69 0 0.0 0.0 0.00 0.00 0.00 90 1018.0
20260507101546 69 0 0.0 1.0 0.00 0.00 0.00 90 1018.0
20260507101031 69 0 0.0 5.0 0.00 0.00 0.00 90 1018.0
20260507100531 69 157 0.0 6.0 0.00 0.00 0.00 89 1018.0
20260507100041 69 0 1.0 6.0 0.00 0.00 0.00 90 1018.1
20260507095530 69 149 0.0 6.0 0.00 0.00 0.00 90 1018.2
20260507095029 69 123 1.0 6.0 0.00 0.00 0.00 90 1018.2
20260507094547 69 0 0.0 3.0 0.00 0.00 0.00 90 1018.1
20260507094031 69 0 0.0 2.0 0.00 0.00 0.00 90 1018.2
20260507093531 69 0 0.0 0.0 0.00 0.00 0.00 90 1018.3
20260507093045 69 0 0.0 0.0 0.00 0.00 0.00 89 1018.3
20260507092534 69 0 0.0 0.0 0.00 0.00 0.00 89 1018.4
20260507092034 70 0 0.0 3.0 0.00 0.00 0.00 89 1018.4
20260507091545 70 0 0.0 3.0 0.00 0.00 0.00 90 1018.4
20260507091031 70 242 0.0 2.0 0.00 0.00 0.00 89 1018.4
20260507090531 70 0 0.0 4.0 0.00 0.00 0.00 89 1018.5
20260507090043 70 0 0.0 4.0 0.00 0.00 0.00 90 1018.5
20260507085530 69 0 0.0 2.0 0.00 0.00 0.00 89 1018.5
20260507085030 70 0 0.0 2.0 0.00 0.00 0.00 89 1018.5
20260507084544 70 0 0.0 3.0 0.00 0.00 0.00 89 1018.4
20260507084036 70 0 0.0 3.0 0.00 0.00 0.00 89 1018.5
20260507083530 70 200 1.0 3.0 0.00 0.00 0.00 89 1018.4
20260507083049 70 0 0.0 4.0 0.00 0.00 0.00 89 1018.5
20260507082529 70 199 0.0 4.0 0.00 0.00 0.00 89 1018.6
20260507082030 70 0 1.0 4.0 0.00 0.00 0.00 89 1018.6
20260507081546 70 198 2.0 4.0 0.00 0.00 0.00 89 1018.6
20260507081030 70 197 2.0 4.0 0.00 0.00 0.00 89 1018.5
20260507080531 70 0 0.0 0.0 0.00 0.00 0.00 89 1018.5
20260507080116 70 0 0.0 0.0 0.00 0.00 0.00 89 1018.5
20260507075532 70 0 0.0 4.0 0.00 0.00 0.00 89 1018.5
20260507075030 70 0 0.0 4.0 0.00 0.00 0.00 89 1018.4
20260507074546 70 162 1.0 5.0 0.00 0.00 0.00 89 1018.5
20260507074032 70 159 2.0 5.0 0.00 0.00 0.00 89 1018.4
20260507073531 70 160 0.0 4.0 0.00 0.00 0.00 89 1018.4
20260507073057 70 0 0.0 4.0 0.00 0.00 0.00 89 1018.4
20260507072530 70 161 0.0 5.0 0.00 0.00 0.00 89 1018.3
20260507072029 70 161 2.0 5.0 0.00 0.00 0.00 89 1018.3
20260507071559 70 161 0.0 2.0 0.00 0.00 0.00 89 1018.2
20260507071032 70 0 0.0 4.0 0.00 0.00 0.00 89 1018.2
20260507070533 70 161 0.0 4.0 0.00 0.00 0.00 89 1018.1
20260507070046 70 0 1.0 4.0 0.00 0.00 0.00 89 1018.1
20260507065532 70 161 1.0 4.0 0.00 0.00 0.00 88 1018.0
20260507065033 70 158 1.0 3.0 0.00 0.00 0.00 88 1017.9
20260507064546 70 158 0.0 3.0 0.00 0.00 0.00 88 1017.8
20260507064035 70 158 1.0 3.0 0.00 0.00 0.00 88 1017.8
20260507063530 71 0 0.0 3.0 0.00 0.00 0.00 88 1017.7
20260507063042 71 157 0.0 3.0 0.00 0.00 0.00 88 1017.7
20260507062535 71 155 0.0 5.0 0.00 0.00 0.00 88 1017.5
20260507062034 71 155 1.0 5.0 0.00 0.00 0.00 88 1017.5
20260507061546 71 148 0.0 4.0 0.00 0.00 0.00 88 1017.4
20260507061034 71 93 0.0 4.0 0.00 0.00 0.00 88 1017.4
20260507060536 71 46 0.0 4.0 0.00 0.00 0.00 88 1017.4
20260507060047 71 333 2.0 3.0 0.00 0.00 0.00 88 1017.3
20260507055538 71 329 1.0 3.0 0.00 0.00 0.00 88 1017.3
20260507055033 71 0 0.0 3.0 0.00 0.00 0.00 88 1017.2
20260507054552 71 336 0.0 3.0 0.00 0.00 0.00 88 1017.2
20260507054036 71 340 0.0 2.0 0.00 0.00 0.00 88 1017.1
20260507053534 71 0 0.0 5.0 0.00 0.00 0.00 88 1016.9
20260507053049 71 340 1.0 5.0 0.00 0.00 0.00 88 1016.8
20260507052534 71 343 0.0 3.0 0.00 0.00 0.00 87 1016.8
20260507052035 71 343 1.0 3.0 0.00 0.00 0.00 87 1016.8
20260507051544 71 0 0.0 2.0 0.00 0.00 0.00 87 1016.7
20260507051033 71 0 0.0 2.0 0.00 0.00 0.00 87 1016.6
20260507050533 71 337 0.0 1.0 0.00 0.00 0.00 86 1016.6
20260507050050 72 0 0.0 0.0 0.00 0.00 0.00 86 1016.4
20260507045533 72 0 0.0 4.0 0.00 0.00 0.00 86 1016.4
20260507045034 72 0 0.0 4.0 0.00 0.00 0.00 86 1016.3
20260507044540 72 338 0.0 3.0 0.00 0.00 0.00 85 1016.2
20260507044036 72 338 0.0 6.0 0.00 0.00 0.00 85 1016.2
20260507043534 72 342 2.0 6.0 0.00 0.00 0.00 85 1016.2
20260507043047 73 360 1.0 4.0 0.00 0.00 0.00 84 1016.1
20260507042533 73 0 0.0 4.0 0.00 0.00 0.00 84 1016.0
20260507042034 73 0 0.0 4.0 0.00 0.00 0.00 83 1016.1
20260507041547 73 45 1.0 3.0 0.00 0.00 0.00 83 1016.0
20260507041034 73 46 0.0 3.0 0.00 0.00 0.00 83 1015.8
20260507040534 73 0 0.0 3.0 0.00 0.00 0.00 82 1015.9
20260507040057 73 0 0.0 4.0 0.00 0.00 0.00 82 1015.7
20260507035533 74 355 0.0 4.0 0.00 0.00 0.00 82 1015.8
20260507035033 74 9 0.0 9.0 0.00 0.00 0.00 82 1015.7
20260507034556 74 0 0.0 9.0 0.00 0.00 0.00 82 1015.7
20260507034033 74 53 1.0 4.0 0.00 0.00 0.00 81 1015.6
20260507033533 74 0 0.0 5.0 0.00 0.00 0.00 81 1015.6
20260507033043 74 71 0.0 5.0 0.00 0.00 0.00 81 1015.6
20260507032539 74 73 1.0 4.0 0.00 0.00 0.00 81 1015.5
20260507032032 74 38 2.0 7.0 0.00 0.00 0.00 81 1015.4
20260507031549 75 360 3.0 8.0 0.00 0.00 0.00 81 1015.3
20260507031033 74 14 1.0 9.0 0.00 0.00 0.00 81 1015.4
20260507030532 75 0 3.0 9.0 0.00 0.00 0.00 81 1015.3
20260507030052 75 327 3.0 8.0 0.00 0.00 0.00 80 1015.2
20260507025530 75 325 2.0 6.0 0.00 0.00 0.00 81 1015.2
20260507025031 75 0 1.0 6.0 0.00 0.00 0.00 81 1015.1
20260507024545 75 332 3.0 9.0 0.00 0.00 0.00 81 1015.1
20260507024031 75 342 3.0 9.0 0.00 0.00 0.00 80 1015.1
20260507023531 75 11 3.0 8.0 0.00 0.00 0.00 80 1015.1
20260507023044 76 344 2.0 7.0 0.00 0.00 0.00 79 1015.1
20260507022531 76 19 2.0 6.0 0.00 0.00 0.00 80 1015.1
20260507022031 76 0 1.0 8.0 0.00 0.00 0.00 80 1015.0
20260507021545 76 344 2.0 8.0 0.00 0.00 0.00 78 1015.1
20260507021033 77 336 3.0 8.0 0.00 0.00 0.00 78 1015.3
20260507020532 77 319 2.0 8.0 0.00 0.00 0.00 78 1015.4
20260507020047 77 319 1.0 6.0 0.00 0.00 0.00 78 1015.4
20260507015533 77 30 1.0 9.0 0.00 0.00 0.00 79 1015.4
20260507015031 76 13 3.0 9.0 0.00 0.00 0.00 79 1015.5
20260507014559 76 39 3.0 8.0 0.00 0.00 0.00 79 1015.4
20260507014035 76 340 2.0 7.0 0.00 0.00 0.00 80 1015.5
20260507013536 76 51 2.0 10.0 0.00 0.00 0.00 79 1015.5
20260507013045 76 336 3.0 10.0 0.00 0.00 0.00 79 1015.4
20260507012533 76 329 4.0 10.0 0.00 0.00 0.00 79 1015.4
20260507012033 76 5 3.0 10.0 0.00 0.00 0.00 79 1015.4
20260507011555 76 5 3.0 9.0 0.00 0.00 0.00 78 1015.4
20260507011032 77 321 1.0 6.0 0.00 0.00 0.00 79 1015.5
20260507010533 76 323 2.0 8.0 0.00 0.00 0.00 78 1015.6
20260507010045 77 43 3.0 8.0 0.00 0.00 0.00 78 1015.6
20260507005533 77 325 2.0 8.0 0.00 0.00 0.00 79 1015.6
20260507005030 77 0 2.0 8.0 0.00 0.00 0.00 78 1015.6
20260507004546 77 315 1.0 7.0 0.00 0.00 0.00 78 1015.7
20260507004033 77 346 3.0 7.0 0.00 0.00 0.00 78 1015.6
20260507003537 77 331 1.0 6.0 0.00 0.00 0.00 78 1015.8
20260507003043 77 326 1.0 7.0 0.00 0.00 0.00 79 1015.7
20260507002533 77 320 2.0 8.0 0.00 0.00 0.00 78 1015.8
20260507002033 77 67 2.0 9.0 0.00 0.00 0.00 78 1015.8
20260507001555 77 326 4.0 9.0 0.00 0.00 0.00 78 1015.9
20260507001034 77 331 4.0 7.0 0.00 0.00 0.00 79 1016.0
20260507000534 77 355 1.0 8.0 0.00 0.00 0.00 79 1016.0
20260507000046 76 11 3.0 8.0 0.00 0.00 0.00 79 1016.0
20260506235535 76 30 4.0 10.0 0.00 0.00 0.00 79 1016.0
20260506235035 76 314 3.0 10.0 0.00 0.00 0.00 79 1016.0
20260506234546 77 323 4.0 9.0 0.00 0.00 0.00 78 1016.0
20260506234034 77 5 5.0 12.0 0.00 0.00 0.00 79 1015.9
20260506233534 77 319 4.0 12.0 0.00 0.00 0.00 78 1015.9
20260506233041 78 33 4.0 8.0 0.00 0.00 0.00 78 1016.0
20260506232534 78 311 3.0 8.0 0.00 0.00 0.00 78 1016.0
20260506232033 78 360 3.0 8.0 0.00 0.00 0.00 79 1016.0
20260506231542 77 345 2.0 9.0 0.00 0.00 0.00 78 1016.2
20260506231033 78 333 3.0 10.0 0.00 0.00 0.00 78 1016.2
20260506230536 78 327 5.0 10.0 0.00 0.00 0.00 77 1016.1
20260506230052 78 0 1.0 8.0 0.00 0.00 0.00 79 1016.2
20260506225535 78 84 3.0 8.0 0.00 0.00 0.00 78 1016.3
20260506225033 78 63 2.0 6.0 0.00 0.00 0.00 79 1016.3
20260506224546 77 235 1.0 6.0 0.00 0.00 0.00 79 1016.3
20260506224033 77 319 1.0 6.0 0.00 0.00 0.00 79 1016.4
20260506223533 77 310 2.0 7.0 0.00 0.00 0.00 79 1016.5
20260506223043 77 339 2.0 7.0 0.00 0.00 0.00 79 1016.5
20260506222534 76 311 3.0 8.0 0.00 0.00 0.00 80 1016.5
20260506222034 76 327 3.0 9.0 0.00 0.00 0.00 79 1016.6
20260506221543 76 327 1.0 9.0 0.00 0.00 0.00 79 1016.6
20260506221034 77 360 2.0 6.0 0.00 0.00 0.00 78 1016.7
20260506220533 77 331 2.0 8.0 0.00 0.00 0.00 78 1016.7
20260506220057 77 320 2.0 8.0 0.00 0.00 0.00 79 1016.7
20260506215536 77 311 2.0 10.0 0.00 0.00 0.00 78 1016.8
20260506215034 77 327 4.0 10.0 0.00 0.00 0.00 78 1016.9
20260506214545 77 31 1.0 9.0 0.00 0.00 0.00 79 1016.9
20260506214034 77 336 3.0 9.0 0.00 0.00 0.00 79 1017.0
20260506213533 77 324 3.0 9.0 0.00 0.00 0.00 79 1017.1
20260506213046 76 315 3.0 9.0 0.00 0.00 0.00 79 1017.1
20260506212534 75 327 3.0 8.0 0.00 0.00 0.00 80 1017.2
20260506212034 75 344 3.0 8.0 0.00 0.00 0.00 81 1017.2
20260506211547 75 311 3.0 7.0 0.00 0.00 0.00 81 1017.2
20260506211035 74 315 3.0 9.0 0.00 0.00 0.00 82 1017.3
20260506210538 74 355 2.0 9.0 0.00 0.00 0.00 82 1017.3
20260506210130 74 311 3.0 8.0 0.00 0.00 0.00 82 1017.3
20260506205531 74 323 2.0 7.0 0.00 0.00 0.00 82 1017.3
20260506205031 74 339 3.0 8.0 0.00 0.00 0.00 81 1017.3
20260506204541 75 321 0.0 8.0 0.00 0.00 0.00 81 1017.2
20260506204034 75 5 2.0 5.0 0.00 0.00 0.00 81 1017.3
20260506203533 75 355 0.0 5.0 0.00 0.00 0.00 81 1017.3
20260506203130 75 355 1.0 4.0 0.00 0.00 0.00 81 1017.4
20260506202530 75 355 2.0 4.0 0.00 0.00 0.00 80 1017.4
20260506202033 75 355 2.0 5.0 0.00 0.00 0.00 81 1017.3
20260506201548 75 355 2.0 5.0 0.00 0.00 0.00 81 1017.3
20260506201030 75 327 1.0 5.0 0.00 0.00 0.00 81 1017.2
20260506200530 75 329 2.0 6.0 0.00 0.00 0.00 81 1017.3
20260506200050 74 340 2.0 6.0 0.00 0.00 0.00 80 1017.3
20260506195531 75 28 2.0 4.0 0.00 0.00 0.00 80 1017.3
20260506195031 75 9 1.0 5.0 0.00 0.00 0.00 80 1017.4
20260506194550 75 5 2.0 5.0 0.00 0.00 0.00 80 1017.3
20260506194031 75 0 1.0 7.0 0.00 0.00 0.00 81 1017.3
20260506193530 74 297 1.0 7.0 0.00 0.00 0.00 81 1017.3
20260506193041 74 333 3.0 5.0 0.00 0.00 0.00 81 1017.3
20260506192530 74 315 1.0 7.0 0.00 0.00 0.00 81 1017.3
20260506192030 74 316 3.0 8.0 0.00 0.00 0.00 82 1017.2
20260506191544 73 295 4.0 8.0 0.00 0.00 0.00 81 1017.2
20260506191030 73 309 3.0 6.0 0.00 0.00 0.00 82 1017.1
20260506190529 73 315 2.0 5.0 0.00 0.00 0.00 82 1017.1
20260506190047 73 333 2.0 4.0 0.00 0.00 0.00 82 1017.1
20260506185533 74 45 1.0 4.0 0.00 0.00 0.00 82 1017.1
20260506185031 73 50 1.0 4.0 0.00 0.00 0.00 82 1017.1
20260506184554 73 50 2.0 4.0 0.00 0.00 0.00 82 1017.0
20260506184032 73 113 1.0 4.0 0.00 0.00 0.00 82 1017.1
20260506183531 73 115 0.0 3.0 0.00 0.00 0.00 82 1017.0
20260506183045 73 116 0.0 2.0 0.00 0.00 0.00 82 1016.9
20260506182531 73 116 0.0 3.0 0.00 0.00 0.00 82 1016.8
20260506182031 73 116 1.0 3.0 0.00 0.00 0.00 83 1016.8
20260506181542 73 116 1.0 3.0 0.00 0.00 0.00 83 1016.8
20260506181033 73 0 0.0 3.0 0.00 0.00 0.00 84 1016.7
20260506180533 72 0 0.0 3.0 0.00 0.00 0.00 84 1016.6
20260506180047 72 0 1.0 3.0 0.00 0.00 0.00 84 1016.7
20260506175531 72 117 0.0 4.0 0.00 0.00 0.00 84 1016.7
20260506175030 71 0 1.0 4.0 0.00 0.00 0.00 85 1016.6
20260506174544 71 0 0.0 0.0 0.00 0.00 0.00 85 1016.6
20260506174030 70 0 0.0 0.0 0.00 0.00 0.00 85 1016.5
20260506173530 70 0 0.0 0.0 0.00 0.00 0.00 85 1016.3
20260506173054 70 0 0.0 0.0 0.00 0.00 0.00 85 1016.3
20260506172530 69 0 0.0 0.0 0.00 0.00 0.00 85 1016.3
20260506172031 69 0 0.0 0.0 0.00 0.00 0.00 85 1016.2
20260506171546 68 0 0.0 1.0 0.00 0.00 0.00 85 1016.1
20260506171032 68 0 0.0 2.0 0.00 0.00 0.00 85 1016.0
20260506170533 68 122 0.0 2.0 0.00 0.00 0.00 84 1015.9
20260506170046 67 0 0.0 3.0 0.00 0.00 0.00 83 1015.9
20260506165530 67 122 1.0 3.0 0.00 0.00 0.00 83 1015.7
20260506165031 67 122 2.0 4.0 0.00 0.00 0.00 83 1015.6
20260506164554 66 123 2.0 4.0 0.00 0.00 0.00 83 1015.7
20260506164030 66 124 1.0 3.0 0.00 0.00 0.00 83 1015.6
20260506163533 66 124 1.0 4.0 0.00 0.00 0.00 83 1015.7
20260506163103 66 124 1.0 4.0 0.00 0.00 0.00 83 1015.6
20260506162530 66 127 1.0 3.0 0.00 0.00 0.00 82 1015.6
20260506162030 67 128 0.0 3.0 0.00 0.00 0.00 82 1015.5
20260506161542 67 128 1.0 4.0 0.00 0.00 0.00 82 1015.5
20260506161030 67 128 1.0 4.0 0.00 0.00 0.00 83 1015.6
20260506160531 66 128 1.0 4.0 0.00 0.00 0.00 83 1015.5
20260506160051 66 129 1.0 3.0 0.00 0.00 0.00 83 1015.4
20260506155532 67 130 0.0 3.0 0.00 0.00 0.00 83 1015.3
20260506155031 67 0 0.0 4.0 0.00 0.00 0.00 83 1015.2
20260506154552 66 130 1.0 4.0 0.00 0.00 0.00 83 1015.3
20260506154031 66 129 2.0 4.0 0.00 0.00 0.00 83 1015.3
20260506153530 67 132 2.0 3.0 0.00 0.00 0.00 84 1015.1
20260506153042 67 131 1.0 4.0 0.00 0.00 0.00 83 1015.1
20260506152530 66 131 2.0 4.0 0.00 0.00 0.00 83 1015.1
20260506152031 66 132 1.0 4.0 0.00 0.00 0.00 82 1015.1
20260506151544 67 132 1.0 3.0 0.00 0.00 0.00 81 1015.1
20260506151030 67 132 1.0 3.0 0.00 0.00 0.00 82 1014.9
20260506150530 67 132 1.0 3.0 0.00 0.00 0.00 82 1014.9
20260506150042 66 132 2.0 4.0 0.00 0.00 0.00 81 1014.8
20260506145530 67 132 2.0 4.0 0.00 0.00 0.00 80 1014.9
20260506145031 67 133 1.0 3.0 0.00 0.00 0.00 82 1014.9
20260506144541 67 133 1.0 3.0 0.00 0.00 0.00 82 1014.9
20260506144034 67 133 1.0 3.0 0.00 0.00 0.00 82 1014.9
20260506143530 66 133 1.0 3.0 0.00 0.00 0.00 83 1014.8
20260506143045 66 133 1.0 4.0 0.00 0.00 0.00 83 1014.8
20260506142530 66 133 2.0 4.0 0.00 0.00 0.00 83 1014.7
20260506142031 66 134 1.0 3.0 0.00 0.00 0.00 83 1014.9
20260506141542 66 134 1.0 3.0 0.00 0.00 0.00 83 1014.9
20260506141032 66 134 2.0 3.0 0.00 0.00 0.00 83 1014.9
20260506140532 67 134 1.0 3.0 0.00 0.00 0.00 83 1014.9
20260506140044 67 134 1.0 3.0 0.00 0.00 0.00 83 1014.9
20260506135530 67 134 1.0 3.0 0.00 0.00 0.00 83 1014.9
20260506135034 67 134 1.0 3.0 0.00 0.00 0.00 83 1014.7
20260506134546 67 135 1.0 3.0 0.00 0.00 0.00 83 1014.9
20260506134030 67 134 1.0 3.0 0.00 0.00 0.00 83 1014.9
20260506133529 67 134 1.0 4.0 0.00 0.00 0.00 83 1014.8
20260506133051 67 134 1.0 4.0 0.00 0.00 0.00 84 1014.8
20260506132530 67 135 1.0 3.0 0.00 0.00 0.00 84 1014.7
20260506132033 67 135 2.0 3.0 0.00 0.00 0.00 84 1014.8
20260506131544 67 134 1.0 3.0 0.00 0.00 0.00 84 1014.7
20260506131030 67 0 0.0 1.0 0.00 0.00 0.00 85 1014.7
20260506130532 67 0 0.0 2.0 0.00 0.00 0.00 86 1014.7
20260506130046 67 136 1.0 4.0 0.00 0.00 0.00 86 1014.6
20260506125530 67 136 1.0 4.0 0.00 0.00 0.00 86 1014.7
20260506125030 66 137 2.0 4.0 0.00 0.00 0.00 85 1014.9